Asheville, NC

1:40 PM EDT on October 14, 2019 (GMT -0400)
Asheville Regional

Weather History for KAVL - May, 2019

Change the Weather History Date:

Monday, May 6, 2019

  Actual Average Record
Temperature  
Mean Temperature 66 °F 61 °F  
Max Temperature 76 °F 73 °F 88 °F (1950)
Min Temperature 55 °F 49 °F 34 °F (1973)
Degree Days  
Heating Degree Days 0 5  
Month to date heating degree days 0 33  
Since 1 July heating degree days 3527 4105  
Cooling Degree Days 1 1  
Month to date cooling degree days 18 5  
Year to date cooling degree days 35 13  
Growing Degree Days 15 (Base 50)    
Moisture  
Dew Point 53 °F    
Average Humidity 68    
Maximum Humidity 93    
Minimum Humidity 43    
Precipitation  
Precipitation 0.00 in 0.12 in 1.48 in (1958)
Month to date precipitation 1.07 0.69  
Year to date precipitation 24.86 15.28  
Snow  
Snow 0.00 in 0.00 in 0.00 in ()
Month to date snowfall 0.0 0.0  
Since 1 July snowfall 11.4 9.9  
Snow Depth 0.00 in    
Sea Level Pressure  
Sea Level Pressure 30.00 in    
Wind  
Wind Speed 5 mph (NNW)    
Max Wind Speed 14 mph    
Max Gust Speed 18 mph    
Visibility 10 miles    
Events      
T = Trace of Precipitation, MM = Missing Value Source: NWS Daily Summary

Daily Weather History Graph

Daily Weather History Graph

Search for Another Location

Airport or City:

Astronomy

May. 06, 2019 Rise Set
Actual Time 6:33 AM EDT 8:20 PM EDT
Civil Twilight 6:06 AM EDT 8:48 PM EDT
Nautical Twilight 5:32 AM EDT 9:21 PM EDT
Astronomical Twilight 4:57 AM EDT 9:56 PM EDT
Moon 7:55 AM EDT (5/6) 10:14 PM EDT (5/6)
Length of Visible Light 14h 41m
Length of Day
13h 46m
Waxing Crescent, 3% of the Moon is Illuminated
May 6
Waxing Crescent
May 11
First Quarter
May 18
Full
May 26
Last Quarter
Jun 3
New

Hourly Weather History & Observations

Time (EDT) Temp. Dew Point Humidity Pressure Visibility Wind Dir Wind Speed Gust Speed Precip Events Conditions
12:54 AM 59.0 °F 54.0 °F 83% 29.88 in 10.0 mi North 5.8 mph - N/A   Clear
1:54 AM 57.9 °F 54.0 °F 87% 29.89 in 10.0 mi North 5.8 mph - N/A   Clear
2:54 AM 57.9 °F 53.1 °F 84% 29.89 in 10.0 mi North 5.8 mph - N/A   Clear
3:54 AM 57.0 °F 53.1 °F 87% 29.90 in 10.0 mi North 5.8 mph - N/A   Clear
4:54 AM 57.0 °F 53.1 °F 87% 29.93 in 10.0 mi North 5.8 mph - N/A   Mostly Cloudy
5:54 AM 57.0 °F 52.0 °F 83% 29.95 in 10.0 mi North 4.6 mph - N/A   Partly Cloudy
6:54 AM 55.9 °F 53.1 °F 90% 29.97 in 10.0 mi North 3.5 mph - N/A   Scattered Clouds
7:32 AM 57.0 °F 54.0 °F 89% 30.04 in 10.0 mi NNW 6.9 mph - N/A   Scattered Clouds
7:54 AM 57.0 °F 54.0 °F 89% 30.00 in 10.0 mi North 5.8 mph - N/A   Scattered Clouds
8:54 AM 60.1 °F 53.1 °F 78% 30.01 in 10.0 mi North 8.1 mph - N/A   Mostly Cloudy
9:54 AM 64.0 °F 53.1 °F 67% 30.01 in 10.0 mi North 9.2 mph - N/A   Mostly Cloudy
10:43 AM 66.0 °F 52.0 °F 60% 30.07 in 10.0 mi North 10.4 mph - N/A   Mostly Cloudy
10:54 AM 64.9 °F 51.1 °F 61% 30.02 in 10.0 mi North 9.2 mph - N/A   Mostly Cloudy
11:54 AM 69.1 °F 52.0 °F 54% 30.02 in 10.0 mi NNW 8.1 mph - N/A   Scattered Clouds
12:54 PM 72.0 °F 54.0 °F 53% 30.02 in 10.0 mi NNW 8.1 mph - N/A   Mostly Cloudy
1:54 PM 73.0 °F 52.0 °F 48% 30.01 in 10.0 mi NNW 8.1 mph - N/A   Mostly Cloudy
2:54 PM 73.0 °F 51.1 °F 46% 30.01 in 10.0 mi Variable 5.8 mph - N/A   Mostly Cloudy
3:54 PM 75.9 °F 51.1 °F 42% 29.99 in 10.0 mi Variable 6.9 mph - N/A   Mostly Cloudy
4:54 PM 75.0 °F 52.0 °F 44% 29.99 in 10.0 mi WNW 4.6 mph - N/A   Partly Cloudy
5:54 PM 73.9 °F 50.0 °F 43% 30.00 in 10.0 mi Calm Calm - N/A   Clear
6:54 PM 72.0 °F 55.0 °F 55% 30.02 in 10.0 mi South 6.9 mph - N/A   Partly Cloudy
7:54 PM 70.0 °F 55.9 °F 61% 30.04 in 10.0 mi South 4.6 mph - N/A   Overcast
8:54 PM 69.1 °F 53.1 °F 57% 30.05 in 10.0 mi Calm Calm - N/A   Mostly Cloudy
9:54 PM 69.1 °F 46.0 °F 44% 30.07 in 10.0 mi NNW 6.9 mph - N/A   Overcast
10:54 PM 66.0 °F 48.0 °F 52% 30.09 in 10.0 mi North 4.6 mph - N/A   Overcast
11:54 PM 64.0 °F 50.0 °F 60% 30.09 in 10.0 mi Calm Calm - N/A   Overcast